Zurück zum Katalog

STARLINK-1361

AktivKommunikationVLEO
NORAD 45567·PAYLOAD·🇺🇸 United States

Gestartet Apr 22, 2020 von Cape Canaveral Space Force Station

Loading…

Nächste Überflüge (nächste 24 Stunden)

TLE

AktuellSource: CelesTrak SupGP

Epoche: Sep 14, 2026, 20:41 UTC

1 45567C 20025AN  26257.86229167  .00121090  00000+0  62046-3 0  2579
2 45567  53.0354 225.8998 0005566  59.9260 124.5649 15.80495189    17

Verfolge STARLINK-1361 in Echtzeit mit AllMySat

Download on the App Store